Time,TemperatureF,DewpointF,PressureIn,WindDirection,WindDirectionDegrees,WindSpeedMPH,WindSpeedGustMPH,Humidity,HourlyPrecipIn,Conditions,Clouds,dailyrainin,SoftwareType,DateUTC
2013-03-14 00:03:00,56.6,24.5,30.08,NW,325,3.0,5.0,29,0.00,,,0.00,WUHU216DAVISVP2,2013-03-14 07:03:00,
2013-03-14 00:08:00,56.7,24.6,30.08,NW,325,2.0,5.0,29,0.00,,,0.00,WUHU216DAVISVP2,2013-03-14 07:08:00,
2013-03-14 00:13:00,56.7,25.4,30.08,NW,325,3.0,5.0,30,0.00,,,0.00,WUHU216DAVISVP2,2013-03-14 07:13:00,
2013-03-14 00:18:00,55.1,24.0,30.08,NW,325,8.0,8.0,30,0.00,,,0.00,WUHU216DAVISVP2,2013-03-14 07:18:00,
2013-03-14 00:23:00,55.4,24.2,30.08,NW,322,7.0,8.0,30,0.00,,,0.00,WUHU216DAVISVP2,2013-03-14 07:23:00,
2013-03-14 00:29:00,54.9,24.6,30.08,NW,322,5.0,8.0,31,0.00,,,0.00,WUHU216DAVISVP2,2013-03-14 07:29:00,
2013-03-14 00:34:00,55.2,24.9,30.09,NW,322,7.0,8.0,31,0.00,,,0.00,WUHU216DAVISVP2,2013-03-14 07:34:00,
2013-03-14 00:39:00,55.7,24.5,30.08,NW,321,5.0,8.0,30,0.00,,,0.00,WUHU216DAVISVP2,2013-03-14 07:39:00,
2013-03-14 00:44:00,55.4,25.0,30.08,NW,321,6.0,8.0,31,0.00,,,0.00,WUHU216DAVISVP2,2013-03-14 07:44:00,
2013-03-14 00:49:00,56.0,24.8,30.08,NW,315,5.0,8.0,30,0.00,,,0.00,WUHU216DAVISVP2,2013-03-14 07:49:00,
2013-03-14 00:54:00,56.5,24.4,30.08,NW,317,6.0,8.0,29,0.00,,,0.00,WUHU216DAVISVP2,2013-03-14 07:54:00,
2013-03-14 00:59:00,56.1,24.9,30.08,NW,317,4.0,7.0,30,0.00,,,0.00,WUHU216DAVISVP2,2013-03-14 07:59:00,
2013-03-14 01:04:00,56.3,25.0,30.08,NW,317,5.0,7.0,30,0.00,,,0.00,WUHU216DAVISVP2,2013-03-14 08:04:00,
2013-03-14 01:09:00,55.7,24.5,30.08,NW,317,4.0,7.0,30,0.00,,,0.00,WUHU216DAVISVP2,2013-03-14 08:09:00,
2013-03-14 01:14:00,55.3,24.9,30.08,NW,315,6.0,7.0,31,0.00,,,0.00,WUHU216DAVISVP2,2013-03-14 08:14:00,
2013-03-14 01:19:00,55.4,25.0,30.08,NW,315,4.0,7.0,31,0.00,,,0.00,WUHU216DAVISVP2,2013-03-14 08:19:00,
2013-03-14 01:24:00,55.6,24.4,30.08,NW,317,7.0,7.0,30,0.00,,,0.00,WUHU216DAVISVP2,2013-03-14 08:24:00,
2013-03-14 01:29:00,56.1,25.1,30.07,NW,315,4.0,7.0,30,0.00,,,0.00,WUHU216DAVISVP2,2013-03-14 08:29:00,
2013-03-14 01:34:00,55.0,24.9,30.07,NW,315,3.0,7.0,31,0.00,,,0.00,WUHU216DAVISVP2,2013-03-14 08:34:00,
2013-03-14 01:40:00,55.1,24.8,30.07,NW,315,2.0,7.0,31,0.00,,,0.00,WUHU216DAVISVP2,2013-03-14 08:40:00,
2013-03-14 01:45:00,55.7,24.5,30.07,NW,315,2.0,7.0,30,0.00,,,0.00,WUHU216DAVISVP2,2013-03-14 08:45:00,
2013-03-14 01:50:00,55.3,24.9,30.08,NW,315,2.0,5.0,31,0.00,,,0.00,WUHU216DAVISVP2,2013-03-14 08:50:00,
2013-03-14 01:55:00,54.8,25.3,30.07,NW,315,3.0,5.0,32,0.00,,,0.00,WUHU216DAVISVP2,2013-03-14 08:55:00,
2013-03-14 02:00:00,53.9,25.4,30.07,NW,315,2.0,4.0,33,0.00,,,0.00,WUHU216DAVISVP2,2013-03-14 09:00:00,
2013-03-14 02:06:00,53.7,25.2,30.07,NW,315,3.0,4.0,33,0.00,,,0.00,WUHU216DAVISVP2,2013-03-14 09:06:00,
2013-03-14 02:11:00,53.4,25.5,30.07,NW,315,2.0,4.0,34,0.00,,,0.00,WUHU216DAVISVP2,2013-03-14 09:11:00,
2013-03-14 02:16:00,52.8,25.7,30.07,NW,315,0.0,4.0,35,0.00,,,0.00,WUHU216DAVISVP2,2013-03-14 09:16:00,
2013-03-14 02:21:00,51.9,25.5,30.08,NW,315,3.0,4.0,36,0.00,,,0.00,WUHU216DAVISVP2,2013-03-14 09:21:00,
2013-03-14 02:26:00,50.9,25.3,30.08,NW,315,3.0,4.0,37,0.00,,,0.00,WUHU216DAVISVP2,2013-03-14 09:26:00,
2013-03-14 02:31:00,51.3,25.9,30.07,NW,315,0.0,4.0,37,0.00,,,0.00,WUHU216DAVISVP2,2013-03-14 09:31:00,
2013-03-14 02:36:00,50.7,25.3,30.07,NW,315,4.0,5.0,37,0.00,,,0.00,WUHU216DAVISVP2,2013-03-14 09:36:00,
2013-03-14 02:41:00,50.7,25.1,30.08,NW,315,4.0,5.0,37,0.00,,,0.00,WUHU216DAVISVP2,2013-03-14 09:41:00,
2013-03-14 02:46:00,50.4,25.5,30.08,NW,315,0.0,5.0,38,0.00,,,0.00,WUHU216DAVISVP2,2013-03-14 09:46:00,
2013-03-14 02:52:00,50.1,25.3,30.08,NW,315,3.0,5.0,38,0.00,,,0.00,WUHU216DAVISVP2,2013-03-14 09:52:00,
2013-03-14 02:57:00,50.3,24.8,30.07,NW,315,4.0,5.0,37,0.00,,,0.00,WUHU216DAVISVP2,2013-03-14 09:57:00,
2013-03-14 03:02:00,50.5,25.2,30.07,NW,315,1.0,5.0,37,0.00,,,0.00,WUHU216DAVISVP2,2013-03-14 10:02:00,
2013-03-14 03:13:00,49.7,25.7,30.07,NW,315,3.0,5.0,39,0.00,,,0.00,WUHU216DAVISVP2,2013-03-14 10:13:00,
2013-03-14 03:20:00,48.9,26.0,30.07,NW,315,0.0,4.0,41,0.00,,,0.00,WUHU216DAVISVP2,2013-03-14 10:20:00,
2013-03-14 03:25:00,48.8,26.0,30.07,NW,315,2.0,3.0,41,0.00,,,0.00,WUHU216DAVISVP2,2013-03-14 10:25:00,
2013-03-14 03:30:00,50.3,26.1,30.07,NW,315,3.0,3.0,39,0.00,,,0.00,WUHU216DAVISVP2,2013-03-14 10:30:00,
2013-03-14 03:41:00,50.1,26.1,30.07,NW,315,2.0,4.0,39,0.00,,,0.00,WUHU216DAVISVP2,2013-03-14 10:41:00,
2013-03-14 03:47:00,49.8,25.6,30.07,NW,315,4.0,4.0,39,0.00,,,0.00,WUHU216DAVISVP2,2013-03-14 10:47:00,
2013-03-14 03:52:00,50.3,25.4,30.07,NW,315,4.0,5.0,38,0.00,,,0.00,WUHU216DAVISVP2,2013-03-14 10:52:00,
2013-03-14 03:57:00,50.6,25.1,30.07,NW,315,4.0,5.0,37,0.00,,,0.00,WUHU216DAVISVP2,2013-03-14 10:57:00,
2013-03-14 04:02:00,51.0,25.4,30.07,NW,315,3.0,5.0,37,0.00,,,0.00,WUHU216DAVISVP2,2013-03-14 11:02:00,
2013-03-14 04:08:00,49.9,25.7,30.07,NW,315,0.0,5.0,39,0.00,,,0.00,WUHU216DAVISVP2,2013-03-14 11:08:00,
2013-03-14 04:13:00,49.0,25.5,30.07,NW,315,1.0,5.0,40,0.00,,,0.00,WUHU216DAVISVP2,2013-03-14 11:13:00,
2013-03-14 04:18:00,48.4,25.6,30.07,NW,315,1.0,4.0,41,0.00,,,0.00,WUHU216DAVISVP2,2013-03-14 11:18:00,
2013-03-14 04:23:00,48.3,26.1,30.07,NW,315,1.0,4.0,42,0.00,,,0.00,WUHU216DAVISVP2,2013-03-14 11:23:00,
2013-03-14 04:29:00,48.6,25.8,30.07,NW,315,2.0,3.0,41,0.00,,,0.00,WUHU216DAVISVP2,2013-03-14 11:29:00,
2013-03-14 04:34:00,48.8,25.3,30.07,NW,315,3.0,4.0,40,0.00,,,0.00,WUHU216DAVISVP2,2013-03-14 11:34:00,
2013-03-14 04:40:00,48.6,25.8,30.07,NW,315,5.0,5.0,41,0.00,,,0.00,WUHU216DAVISVP2,2013-03-14 11:40:00,
2013-03-14 04:45:00,48.5,25.7,30.07,NW,315,3.0,5.0,41,0.00,,,0.00,WUHU216DAVISVP2,2013-03-14 11:45:00,
2013-03-14 04:50:00,48.8,26.0,30.07,NW,315,3.0,5.0,41,0.00,,,0.00,WUHU216DAVISVP2,2013-03-14 11:50:00,
2013-03-14 04:55:00,48.2,26.0,30.07,NW,315,0.0,5.0,42,0.00,,,0.00,WUHU216DAVISVP2,2013-03-14 11:55:00,
2013-03-14 05:00:00,47.6,26.0,30.07,NW,315,4.0,5.0,43,0.00,,,0.00,WUHU216DAVISVP2,2013-03-14 12:00:00,
2013-03-14 05:06:00,47.6,25.5,30.07,NW,315,5.0,6.0,42,0.00,,,0.00,WUHU216DAVISVP2,2013-03-14 12:06:00,
2013-03-14 05:11:00,47.9,26.3,30.07,NW,315,0.0,6.0,43,0.00,,,0.00,WUHU216DAVISVP2,2013-03-14 12:11:00,
2013-03-14 05:16:00,47.3,25.8,30.07,NW,315,0.0,6.0,43,0.00,,,0.00,WUHU216DAVISVP2,2013-03-14 12:16:00,
2013-03-14 05:21:00,47.2,25.7,30.07,NW,315,1.0,6.0,43,0.00,,,0.00,WUHU216DAVISVP2,2013-03-14 12:21:00,
2013-03-14 05:26:00,47.7,26.1,30.07,NW,315,0.0,4.0,43,0.00,,,0.00,WUHU216DAVISVP2,2013-03-14 12:26:00,
2013-03-14 05:31:00,49.0,26.1,30.08,NW,315,2.0,3.0,41,0.00,,,0.00,WUHU216DAVISVP2,2013-03-14 12:31:00,
2013-03-14 05:36:00,50.3,26.1,30.08,NW,315,0.0,3.0,39,0.00,,,0.00,WUHU216DAVISVP2,2013-03-14 12:36:00,
2013-03-14 05:41:00,50.6,25.7,30.08,NW,315,3.0,4.0,38,0.00,,,0.00,WUHU216DAVISVP2,2013-03-14 12:41:00,
2013-03-14 05:47:00,49.5,26.0,30.08,NW,315,0.0,4.0,40,0.00,,,0.00,WUHU216DAVISVP2,2013-03-14 12:47:00,
2013-03-14 05:52:00,49.1,25.6,30.08,NW,315,2.0,4.0,40,0.00,,,0.00,WUHU216DAVISVP2,2013-03-14 12:52:00,
2013-03-14 05:57:00,48.3,26.1,30.08,NW,315,1.0,4.0,42,0.00,,,0.00,WUHU216DAVISVP2,2013-03-14 12:57:00,
2013-03-14 06:02:00,48.2,25.4,30.08,NW,315,2.0,4.0,41,0.00,,,0.00,WUHU216DAVISVP2,2013-03-14 13:02:00,
2013-03-14 06:07:00,48.6,26.4,30.08,NW,315,0.0,4.0,42,0.00,,,0.00,WUHU216DAVISVP2,2013-03-14 13:07:00,
2013-03-14 06:12:00,48.4,25.6,30.08,NW,315,1.0,4.0,41,0.00,,,0.00,WUHU216DAVISVP2,2013-03-14 13:12:00,
2013-03-14 06:17:00,48.8,26.0,30.08,NW,315,1.0,4.0,41,0.00,,,0.00,WUHU216DAVISVP2,2013-03-14 13:17:00,
2013-03-14 06:22:00,49.3,25.8,30.08,NW,315,0.0,3.0,40,0.00,,,0.00,WUHU216DAVISVP2,2013-03-14 13:22:00,
2013-03-14 06:27:00,48.6,25.8,30.08,NW,315,0.0,3.0,41,0.00,,,0.00,WUHU216DAVISVP2,2013-03-14 13:27:00,
2013-03-14 06:32:00,47.8,25.6,30.09,NW,315,2.0,3.0,42,0.00,,,0.00,WUHU216DAVISVP2,2013-03-14 13:32:00,
2013-03-14 06:37:00,47.3,26.5,30.09,NW,315,0.0,4.0,44,0.00,,,0.00,WUHU216DAVISVP2,2013-03-14 13:37:00,
2013-03-14 06:43:00,47.8,25.8,30.09,NW,315,2.0,4.0,42,0.00,,,0.00,WUHU216DAVISVP2,2013-03-14 13:43:00,
2013-03-14 06:48:00,47.6,26.2,30.09,NW,315,4.0,5.0,43,0.00,,,0.00,WUHU216DAVISVP2,2013-03-14 13:48:00,
2013-03-14 06:53:00,47.8,25.6,30.09,NW,315,4.0,5.0,42,0.00,,,0.00,WUHU216DAVISVP2,2013-03-14 13:53:00,
2013-03-14 06:58:00,48.4,26.2,30.09,NW,315,2.0,5.0,42,0.00,,,0.00,WUHU216DAVISVP2,2013-03-14 13:58:00,
2013-03-14 07:03:00,47.9,25.7,30.09,NW,315,2.0,5.0,42,0.00,,,0.00,WUHU216DAVISVP2,2013-03-14 14:03:00,
2013-03-14 07:08:00,48.8,26.0,30.09,NW,315,3.0,5.0,41,0.00,,,0.00,WUHU216DAVISVP2,2013-03-14 14:08:00,
2013-03-14 07:13:00,49.1,26.2,30.10,NW,315,2.0,4.0,41,0.00,,,0.00,WUHU216DAVISVP2,2013-03-14 14:13:00,
2013-03-14 07:18:00,48.4,25.8,30.10,NW,315,2.0,4.0,41,0.00,,,0.00,WUHU216DAVISVP2,2013-03-14 14:18:00,
2013-03-14 07:23:00,48.1,26.1,30.10,NW,315,2.0,4.0,42,0.00,,,0.00,WUHU216DAVISVP2,2013-03-14 14:23:00,
2013-03-14 07:28:00,47.9,25.9,30.10,NW,315,0.0,3.0,42,0.00,,,0.00,WUHU216DAVISVP2,2013-03-14 14:28:00,
2013-03-14 07:34:00,47.5,27.1,30.10,NW,315,0.0,3.0,45,0.00,,,0.00,WUHU216DAVISVP2,2013-03-14 14:34:00,
2013-03-14 07:39:00,47.4,27.0,30.10,NW,315,1.0,3.0,45,0.00,,,0.00,WUHU216DAVISVP2,2013-03-14 14:39:00,
2013-03-14 07:44:00,48.3,27.3,30.11,NW,315,2.0,3.0,44,0.00,,,0.00,WUHU216DAVISVP2,2013-03-14 14:44:00,
2013-03-14 07:49:00,49.9,28.1,30.11,NW,315,2.0,3.0,43,0.00,,,0.00,WUHU216DAVISVP2,2013-03-14 14:49:00,
2013-03-14 07:54:00,51.0,27.3,30.11,NW,315,2.0,3.0,40,0.00,,,0.00,WUHU216DAVISVP2,2013-03-14 14:54:00,
2013-03-14 07:59:00,52.3,26.6,30.11,NW,315,2.0,4.0,37,0.00,,,0.00,WUHU216DAVISVP2,2013-03-14 14:59:00,
2013-03-14 08:04:00,53.5,27.8,30.11,NW,315,2.0,4.0,37,0.00,,,0.00,WUHU216DAVISVP2,2013-03-14 15:04:00,
2013-03-14 08:09:00,54.7,27.6,30.11,NW,315,0.0,4.0,35,0.00,,,0.00,WUHU216DAVISVP2,2013-03-14 15:09:00,
2013-03-14 08:14:00,55.7,27.7,30.11,NW,315,0.0,4.0,34,0.00,,,0.00,WUHU216DAVISVP2,2013-03-14 15:14:00,
2013-03-14 08:20:00,56.9,27.3,30.11,NW,315,0.0,3.0,32,0.00,,,0.00,WUHU216DAVISVP2,2013-03-14 15:20:00,
2013-03-14 08:25:00,58.1,27.4,30.11,NW,315,0.0,2.0,31,0.00,,,0.00,WUHU216DAVISVP2,2013-03-14 15:25:00,
2013-03-14 08:30:00,59.0,28.2,30.11,NW,315,0.0,1.0,31,0.00,,,0.00,WUHU216DAVISVP2,2013-03-14 15:30:00,
2013-03-14 08:35:00,59.9,26.5,30.11,NW,315,0.0,1.0,28,0.00,,,0.00,WUHU216DAVISVP2,2013-03-14 15:35:00,
2013-03-14 08:40:00,60.8,26.4,30.11,NW,315,0.0,1.0,27,0.00,,,0.00,WUHU216DAVISVP2,2013-03-14 15:40:00,
2013-03-14 08:46:00,61.8,26.4,30.11,NW,315,0.0,1.0,26,0.00,,,0.00,WUHU216DAVISVP2,2013-03-14 15:46:00,
2013-03-14 08:51:00,63.4,26.8,30.11,NW,315,0.0,1.0,25,0.00,,,0.00,WUHU216DAVISVP2,2013-03-14 15:51:00,
2013-03-14 08:56:00,65.2,27.4,30.11,NW,315,0.0,0.0,24,0.00,,,0.00,WUHU216DAVISVP2,2013-03-14 15:56:00,
2013-03-14 09:01:00,67.2,27.0,30.11,NW,315,0.0,0.0,22,0.00,,,0.00,WUHU216DAVISVP2,2013-03-14 16:01:00,
2013-03-14 09:06:00,68.5,26.9,30.11,NW,315,1.0,2.0,21,0.00,,,0.00,WUHU216DAVISVP2,2013-03-14 16:06:00,
2013-03-14 09:12:00,68.7,26.0,30.11,NW,316,1.0,2.0,20,0.00,,,0.00,WUHU216DAVISVP2,2013-03-14 16:12:00,
2013-03-14 09:17:00,68.6,27.1,30.11,NW,316,1.0,2.0,21,0.00,,,0.00,WUHU216DAVISVP2,2013-03-14 16:17:00,
2013-03-14 09:22:00,68.7,26.0,30.11,NW,316,1.0,3.0,20,0.00,,,0.00,WUHU216DAVISVP2,2013-03-14 16:22:00,
2013-03-14 09:27:00,69.1,26.3,30.11,NW,318,0.0,3.0,20,0.00,,,0.00,WUHU216DAVISVP2,2013-03-14 16:27:00,
2013-03-14 09:32:00,69.8,25.6,30.11,NW,321,1.0,3.0,19,0.00,,,0.00,WUHU216DAVISVP2,2013-03-14 16:32:00,
2013-03-14 09:37:00,70.2,26.0,30.11,NNW,340,2.0,3.0,19,0.00,,,0.00,WUHU216DAVISVP2,2013-03-14 16:37:00,
2013-03-14 09:42:00,70.4,26.1,30.11,North,5,2.0,3.0,19,0.00,,,0.00,WUHU216DAVISVP2,2013-03-14 16:42:00,
2013-03-14 09:47:00,70.6,26.3,30.11,NNE,26,3.0,5.0,19,0.00,,,0.00,WUHU216DAVISVP2,2013-03-14 16:47:00,
2013-03-14 09:52:00,70.8,26.5,30.10,NNE,32,4.0,5.0,19,0.00,,,0.00,WUHU216DAVISVP2,2013-03-14 16:52:00,
2013-03-14 09:57:00,70.9,26.5,30.10,NE,34,3.0,5.0,19,0.00,,,0.00,WUHU216DAVISVP2,2013-03-14 16:57:00,
2013-03-14 10:03:00,71.0,26.6,30.10,NE,35,3.0,5.0,19,0.00,,,0.00,WUHU216DAVISVP2,2013-03-14 17:03:00,
2013-03-14 10:08:00,71.6,27.1,30.10,NE,35,4.0,5.0,19,0.00,,,0.00,WUHU216DAVISVP2,2013-03-14 17:08:00,
2013-03-14 10:15:00,72.5,26.5,30.10,NE,35,2.0,5.0,18,0.00,,,0.00,WUHU216DAVISVP2,2013-03-14 17:15:00,
2013-03-14 10:20:00,73.1,25.7,30.10,NE,35,3.0,5.0,17,0.00,,,0.00,WUHU216DAVISVP2,2013-03-14 17:20:00,
2013-03-14 10:25:00,73.7,26.1,30.10,NE,37,2.0,5.0,17,0.00,,,0.00,WUHU216DAVISVP2,2013-03-14 17:25:00,
2013-03-14 10:30:00,74.2,25.1,30.10,NE,40,3.0,5.0,16,0.00,,,0.00,WUHU216DAVISVP2,2013-03-14 17:30:00,
2013-03-14 10:35:00,74.9,25.6,30.10,NE,40,4.0,5.0,16,0.00,,,0.00,WUHU216DAVISVP2,2013-03-14 17:35:00,
2013-03-14 10:40:00,75.4,24.5,30.10,NE,41,1.0,5.0,15,0.00,,,0.00,WUHU216DAVISVP2,2013-03-14 17:40:00,
2013-03-14 10:45:00,75.7,23.0,30.10,NE,41,3.0,5.0,14,0.00,,,0.00,WUHU216DAVISVP2,2013-03-14 17:45:00,
2013-03-14 10:51:00,76.5,25.3,30.10,NE,44,3.0,5.0,15,0.00,,,0.00,WUHU216DAVISVP2,2013-03-14 17:51:00,
2013-03-14 10:56:00,77.4,24.4,30.10,NE,44,3.0,4.0,14,0.00,,,0.00,WUHU216DAVISVP2,2013-03-14 17:56:00,
2013-03-14 11:01:00,78.1,23.1,30.09,NE,44,1.0,4.0,13,0.00,,,0.00,WUHU216DAVISVP2,2013-03-14 18:01:00,
2013-03-14 11:06:00,78.3,23.3,30.09,NE,44,4.0,4.0,13,0.00,,,0.00,WUHU216DAVISVP2,2013-03-14 18:06:00,
2013-03-14 11:11:00,78.5,21.5,30.09,NE,45,2.0,4.0,12,0.00,,,0.00,WUHU216DAVISVP2,2013-03-14 18:11:00,
2013-03-14 11:16:00,78.9,25.6,30.09,NE,45,4.0,4.0,14,0.00,,,0.00,WUHU216DAVISVP2,2013-03-14 18:16:00,
2013-03-14 11:21:00,79.1,23.9,30.09,NE,48,1.0,5.0,13,0.00,,,0.00,WUHU216DAVISVP2,2013-03-14 18:21:00,
2013-03-14 11:26:00,79.5,22.2,30.09,NE,53,0.0,5.0,12,0.00,,,0.00,WUHU216DAVISVP2,2013-03-14 18:26:00,
2013-03-14 11:31:00,79.7,24.4,30.09,NE,53,6.0,6.0,13,0.00,,,0.00,WUHU216DAVISVP2,2013-03-14 18:31:00,
2013-03-14 11:36:00,79.8,22.5,30.09,NE,55,0.0,6.0,12,0.00,,,0.00,WUHU216DAVISVP2,2013-03-14 18:36:00,
2013-03-14 11:42:00,80.5,23.0,30.08,NE,55,2.0,6.0,12,0.00,,,0.00,WUHU216DAVISVP2,2013-03-14 18:42:00,
2013-03-14 11:47:00,80.4,22.9,30.08,SE,130,2.0,7.0,12,0.00,,,0.00,WUHU216DAVISVP2,2013-03-14 18:47:00,
2013-03-14 11:52:00,79.6,24.3,30.08,SE,144,0.0,7.0,13,0.00,,,0.00,WUHU216DAVISVP2,2013-03-14 18:52:00,
2013-03-14 11:57:00,80.0,22.6,30.08,SE,144,1.0,7.0,12,0.00,,,0.00,WUHU216DAVISVP2,2013-03-14 18:57:00,
2013-03-14 12:02:00,80.7,23.2,30.08,SE,144,0.0,7.0,12,0.00,,,0.00,WUHU216DAVISVP2,2013-03-14 19:02:00,
2013-03-14 12:07:00,81.2,21.4,30.07,ESE,109,4.0,9.0,11,0.00,,,0.00,WUHU216DAVISVP2,2013-03-14 19:07:00,
2013-03-14 12:12:00,81.4,21.8,30.07,SE,132,2.0,9.0,11,0.00,,,0.00,WUHU216DAVISVP2,2013-03-14 19:12:00,
2013-03-14 12:17:00,81.2,21.4,30.07,ESE,113,4.0,9.0,11,0.00,,,0.00,WUHU216DAVISVP2,2013-03-14 19:17:00,
2013-03-14 12:22:00,80.9,21.2,30.07,East,101,3.0,10.0,11,0.00,,,0.00,WUHU216DAVISVP2,2013-03-14 19:22:00,
2013-03-14 12:27:00,80.7,21.3,30.07,ESE,111,7.0,10.0,11,0.00,,,0.00,WUHU216DAVISVP2,2013-03-14 19:27:00,
2013-03-14 12:33:00,81.1,21.4,30.07,ESE,111,4.0,10.0,11,0.00,,,0.00,WUHU216DAVISVP2,2013-03-14 19:33:00,
2013-03-14 12:38:00,81.6,21.7,30.06,ESE,111,2.0,10.0,11,0.00,,,0.00,WUHU216DAVISVP2,2013-03-14 19:38:00,
2013-03-14 12:43:00,80.9,21.2,30.06,ESE,107,7.0,11.0,11,0.00,,,0.00,WUHU216DAVISVP2,2013-03-14 19:43:00,
2013-03-14 12:48:00,80.7,21.3,30.06,ESE,103,8.0,11.0,11,0.00,,,0.00,WUHU216DAVISVP2,2013-03-14 19:48:00,
2013-03-14 12:53:00,80.9,21.2,30.06,SE,145,8.0,11.0,11,0.00,,,0.00,WUHU216DAVISVP2,2013-03-14 19:53:00,
2013-03-14 12:58:00,80.8,21.1,30.06,South,173,2.0,11.0,11,0.00,,,0.00,WUHU216DAVISVP2,2013-03-14 19:58:00,
2013-03-14 13:03:00,81.0,21.5,30.05,SSW,193,10.0,12.0,11,0.00,,,0.00,WUHU216DAVISVP2,2013-03-14 20:03:00,
2013-03-14 13:08:00,80.6,21.0,30.05,SSE,163,7.0,12.0,11,0.00,,,0.00,WUHU216DAVISVP2,2013-03-14 20:08:00,
2013-03-14 13:13:00,80.9,21.2,30.05,South,175,8.0,12.0,11,0.00,,,0.00,WUHU216DAVISVP2,2013-03-14 20:13:00,
2013-03-14 13:19:00,80.7,21.1,30.05,South,181,6.0,12.0,11,0.00,,,0.00,WUHU216DAVISVP2,2013-03-14 20:19:00,
2013-03-14 13:24:00,80.9,21.4,30.05,SSE,148,5.0,12.0,11,0.00,,,0.00,WUHU216DAVISVP2,2013-03-14 20:24:00,
2013-03-14 13:29:00,81.3,21.5,30.04,SSE,163,9.0,12.0,11,0.00,,,0.00,WUHU216DAVISVP2,2013-03-14 20:29:00,
2013-03-14 13:34:00,81.5,19.4,30.04,South,180,2.0,10.0,10,0.00,,,0.00,WUHU216DAVISVP2,2013-03-14 20:34:00,
2013-03-14 13:39:00,81.9,22.0,30.04,South,180,1.0,9.0,11,0.00,,,0.00,WUHU216DAVISVP2,2013-03-14 20:39:00,
2013-03-14 13:44:00,81.9,19.7,30.03,South,181,2.0,9.0,10,0.00,,,0.00,WUHU216DAVISVP2,2013-03-14 20:44:00,
2013-03-14 13:49:00,82.1,19.8,30.03,SSE,163,2.0,9.0,10,0.00,,,0.00,WUHU216DAVISVP2,2013-03-14 20:49:00,
2013-03-14 13:54:00,82.3,20.0,30.03,SSE,165,7.0,9.0,10,0.00,,,0.00,WUHU216DAVISVP2,2013-03-14 20:54:00,
2013-03-14 13:59:00,82.1,19.8,30.03,South,188,4.0,10.0,10,0.00,,,0.00,WUHU216DAVISVP2,2013-03-14 20:59:00,
2013-03-14 14:04:00,81.8,21.9,30.02,South,170,6.0,10.0,11,0.00,,,0.00,WUHU216DAVISVP2,2013-03-14 21:04:00,
2013-03-14 14:09:00,81.6,19.4,30.02,South,175,5.0,10.0,10,0.00,,,0.00,WUHU216DAVISVP2,2013-03-14 21:09:00,
2013-03-14 14:15:00,82.1,19.8,30.02,South,174,3.0,10.0,10,0.00,,,0.00,WUHU216DAVISVP2,2013-03-14 21:15:00,
2013-03-14 14:20:00,82.2,19.9,30.02,South,172,10.0,10.0,10,0.00,,,0.00,WUHU216DAVISVP2,2013-03-14 21:20:00,
2013-03-14 14:25:00,82.3,20.0,30.01,South,172,2.0,10.0,10,0.00,,,0.00,WUHU216DAVISVP2,2013-03-14 21:25:00,
2013-03-14 14:30:00,82.2,19.9,30.01,South,173,4.0,10.0,10,0.00,,,0.00,WUHU216DAVISVP2,2013-03-14 21:30:00,
2013-03-14 14:35:00,82.5,20.1,30.01,ESE,113,3.0,10.0,10,0.00,,,0.00,WUHU216DAVISVP2,2013-03-14 21:35:00,
2013-03-14 14:40:00,82.7,17.8,30.01,SE,141,4.0,9.0,9,0.00,,,0.00,WUHU216DAVISVP2,2013-03-14 21:40:00,
2013-03-14 14:45:00,82.9,17.9,30.01,SSW,200,5.0,10.0,9,0.00,,,0.00,WUHU216DAVISVP2,2013-03-14 21:45:00,
2013-03-14 14:50:00,82.7,17.8,30.01,SSW,197,10.0,10.0,9,0.00,,,0.00,WUHU216DAVISVP2,2013-03-14 21:50:00,
2013-03-14 14:55:00,82.8,20.4,30.00,SSW,211,5.0,10.0,10,0.00,,,0.00,WUHU216DAVISVP2,2013-03-14 21:55:00,
2013-03-14 15:01:00,82.6,20.2,30.00,South,177,4.0,10.0,10,0.00,,,0.00,WUHU216DAVISVP2,2013-03-14 22:01:00,
2013-03-14 15:06:00,82.8,17.8,30.00,South,176,4.0,10.0,9,0.00,,,0.00,WUHU216DAVISVP2,2013-03-14 22:06:00,
2013-03-14 15:11:00,83.1,18.1,30.00,South,186,3.0,9.0,9,0.00,,,0.00,WUHU216DAVISVP2,2013-03-14 22:11:00,
2013-03-14 15:16:00,83.8,18.6,30.00,South,188,5.0,9.0,9,0.00,,,0.00,WUHU216DAVISVP2,2013-03-14 22:16:00,
2013-03-14 15:21:00,83.7,18.5,30.00,SE,146,5.0,10.0,9,0.00,,,0.00,WUHU216DAVISVP2,2013-03-14 22:21:00,
2013-03-14 15:26:00,83.5,18.4,30.00,South,188,5.0,11.0,9,0.00,,,0.00,WUHU216DAVISVP2,2013-03-14 22:26:00,
2013-03-14 15:31:00,83.0,18.0,29.99,South,175,7.0,11.0,9,0.00,,,0.00,WUHU216DAVISVP2,2013-03-14 22:31:00,
2013-03-14 15:36:00,83.3,18.2,29.99,SSE,164,9.0,12.0,9,0.00,,,0.00,WUHU216DAVISVP2,2013-03-14 22:36:00,
2013-03-14 15:41:00,83.4,18.3,29.99,South,171,4.0,12.0,9,0.00,,,0.00,WUHU216DAVISVP2,2013-03-14 22:41:00,
2013-03-14 15:46:00,83.4,18.3,29.99,South,169,3.0,12.0,9,0.00,,,0.00,WUHU216DAVISVP2,2013-03-14 22:46:00,
2013-03-14 15:52:00,83.9,18.7,29.98,SSE,148,6.0,12.0,9,0.00,,,0.00,WUHU216DAVISVP2,2013-03-14 22:52:00,
2013-03-14 15:57:00,84.2,18.9,29.98,SSE,158,9.0,13.0,9,0.00,,,0.00,WUHU216DAVISVP2,2013-03-14 22:57:00,
2013-03-14 16:02:00,84.3,19.0,29.98,SSE,150,7.0,13.0,9,0.00,,,0.00,WUHU216DAVISVP2,2013-03-14 23:02:00,
2013-03-14 16:07:00,83.9,19.0,29.98,SSW,196,9.0,13.0,9,0.00,,,0.00,WUHU216DAVISVP2,2013-03-14 23:07:00,
2013-03-14 16:12:00,83.5,18.7,29.98,SSE,165,5.0,13.0,9,0.00,,,0.00,WUHU216DAVISVP2,2013-03-14 23:12:00,
2013-03-14 16:17:00,83.5,18.4,29.98,SSE,148,10.0,12.0,9,0.00,,,0.00,WUHU216DAVISVP2,2013-03-14 23:17:00,
2013-03-14 16:22:00,83.7,18.5,29.97,SE,143,5.0,12.0,9,0.00,,,0.00,WUHU216DAVISVP2,2013-03-14 23:22:00,
2013-03-14 16:27:00,83.8,15.8,29.97,South,181,7.0,12.0,8,0.00,,,0.00,WUHU216DAVISVP2,2013-03-14 23:27:00,
2013-03-14 16:32:00,83.7,18.5,29.97,South,173,11.0,13.0,9,0.00,,,0.00,WUHU216DAVISVP2,2013-03-14 23:32:00,
2013-03-14 16:37:00,83.8,18.6,29.97,South,179,4.0,13.0,9,0.00,,,0.00,WUHU216DAVISVP2,2013-03-14 23:37:00,
2013-03-14 16:42:00,84.0,19.1,29.97,SSE,148,8.0,13.0,9,0.00,,,0.00,WUHU216DAVISVP2,2013-03-14 23:42:00,
2013-03-14 16:48:00,83.7,18.8,29.97,SSE,156,7.0,13.0,9,0.00,,,0.00,WUHU216DAVISVP2,2013-03-14 23:48:00,
2013-03-14 16:53:00,83.7,18.5,29.97,South,176,6.0,13.0,9,0.00,,,0.00,WUHU216DAVISVP2,2013-03-14 23:53:00,
2013-03-14 16:58:00,83.7,18.5,29.97,South,179,4.0,13.0,9,0.00,,,0.00,WUHU216DAVISVP2,2013-03-14 23:58:00,
2013-03-14 17:03:00,83.8,18.6,29.97,South,174,8.0,12.0,9,0.00,,,0.00,WUHU216DAVISVP2,2013-03-15 00:03:00,
2013-03-14 17:08:00,83.9,18.7,29.97,South,172,6.0,12.0,9,0.00,,,0.00,WUHU216DAVISVP2,2013-03-15 00:08:00,
2013-03-14 17:13:00,84.1,18.8,29.96,South,172,7.0,12.0,9,0.00,,,0.00,WUHU216DAVISVP2,2013-03-15 00:13:00,
2013-03-14 17:18:00,84.1,19.1,29.96,SSE,151,3.0,12.0,9,0.00,,,0.00,WUHU216DAVISVP2,2013-03-15 00:18:00,
2013-03-14 17:23:00,84.2,19.2,29.96,SSE,151,1.0,9.0,9,0.00,,,0.00,WUHU216DAVISVP2,2013-03-15 00:23:00,
2013-03-14 17:28:00,84.2,16.5,29.96,SSE,151,5.0,9.0,8,0.00,,,0.00,WUHU216DAVISVP2,2013-03-15 00:28:00,
2013-03-14 17:34:00,84.1,18.8,29.96,SSE,156,4.0,9.0,9,0.00,,,0.00,WUHU216DAVISVP2,2013-03-15 00:34:00,
2013-03-14 17:39:00,83.9,18.7,29.96,SSE,151,7.0,11.0,9,0.00,,,0.00,WUHU216DAVISVP2,2013-03-15 00:39:00,
2013-03-14 17:44:00,83.7,18.5,29.96,SSE,151,3.0,11.0,9,0.00,,,0.00,WUHU216DAVISVP2,2013-03-15 00:44:00,
2013-03-14 17:49:00,83.6,18.4,29.96,SSE,153,6.0,11.0,9,0.00,,,0.00,WUHU216DAVISVP2,2013-03-15 00:49:00,
2013-03-14 17:54:00,83.4,18.3,29.95,SSE,154,6.0,10.0,9,0.00,,,0.00,WUHU216DAVISVP2,2013-03-15 00:54:00,
2013-03-14 17:59:00,83.4,18.3,29.95,SSE,154,6.0,10.0,9,0.00,,,0.00,WUHU216DAVISVP2,2013-03-15 00:59:00,
2013-03-14 18:04:00,83.3,18.5,29.95,SSE,155,5.0,10.0,9,0.00,,,0.00,WUHU216DAVISVP2,2013-03-15 01:04:00,
2013-03-14 18:09:00,83.0,18.3,29.95,SSE,150,6.0,10.0,9,0.00,,,0.00,WUHU216DAVISVP2,2013-03-15 01:09:00,
2013-03-14 18:14:00,82.8,18.2,29.95,SSE,150,5.0,10.0,9,0.00,,,0.00,WUHU216DAVISVP2,2013-03-15 01:14:00,
2013-03-14 18:19:00,82.7,18.1,29.95,SSE,150,3.0,9.0,9,0.00,,,0.00,WUHU216DAVISVP2,2013-03-15 01:19:00,
2013-03-14 18:24:00,82.4,22.4,29.96,SSW,194,9.0,11.0,11,0.00,,,0.00,WUHU216DAVISVP2,2013-03-15 01:24:00,
2013-03-14 18:30:00,81.9,29.6,29.96,SSW,208,7.0,14.0,15,0.00,,,0.00,WUHU216DAVISVP2,2013-03-15 01:30:00,
2013-03-14 18:35:00,81.6,31.0,29.96,SW,223,7.0,14.0,16,0.00,,,0.00,WUHU216DAVISVP2,2013-03-15 01:35:00,
2013-03-14 18:40:00,80.8,30.4,29.95,SW,226,11.0,14.0,16,0.00,,,0.00,WUHU216DAVISVP2,2013-03-15 01:40:00,
2013-03-14 18:45:00,80.3,30.0,29.95,WSW,240,9.0,15.0,16,0.00,,,0.00,WUHU216DAVISVP2,2013-03-15 01:45:00,
2013-03-14 18:50:00,80.1,29.8,29.95,WSW,237,12.0,16.0,16,0.00,,,0.00,WUHU216DAVISVP2,2013-03-15 01:50:00,
2013-03-14 18:55:00,79.8,31.1,29.95,SW,225,8.0,16.0,17,0.00,,,0.00,WUHU216DAVISVP2,2013-03-15 01:55:00,
2013-03-14 19:00:00,79.4,32.2,29.96,SW,232,12.0,16.0,18,0.00,,,0.00,WUHU216DAVISVP2,2013-03-15 02:00:00,
2013-03-14 19:05:00,79.0,33.2,29.95,SW,227,12.0,18.0,19,0.00,,,0.00,WUHU216DAVISVP2,2013-03-15 02:05:00,
2013-03-14 19:10:00,78.7,32.9,29.95,SW,228,12.0,18.0,19,0.00,,,0.00,WUHU216DAVISVP2,2013-03-15 02:10:00,
2013-03-14 19:15:00,78.3,33.9,29.95,SW,222,11.0,21.0,20,0.00,,,0.00,WUHU216DAVISVP2,2013-03-15 02:15:00,
2013-03-14 19:20:00,77.9,35.9,29.95,WSW,237,14.0,21.0,22,0.00,,,0.00,WUHU216DAVISVP2,2013-03-15 02:20:00,
2013-03-14 19:25:00,77.7,36.9,29.96,WSW,248,10.0,21.0,23,0.00,,,0.00,WUHU216DAVISVP2,2013-03-15 02:25:00,
2013-03-14 19:31:00,77.3,37.6,29.95,SW,229,10.0,18.0,24,0.00,,,0.00,WUHU216DAVISVP2,2013-03-15 02:31:00,
2013-03-14 19:36:00,77.0,38.4,29.95,WSW,237,10.0,18.0,25,0.00,,,0.00,WUHU216DAVISVP2,2013-03-15 02:36:00,
2013-03-14 19:41:00,76.8,38.2,29.95,SW,232,9.0,17.0,25,0.00,,,0.00,WUHU216DAVISVP2,2013-03-15 02:41:00,
2013-03-14 19:46:00,76.7,39.1,29.95,SW,228,12.0,16.0,26,0.00,,,0.00,WUHU216DAVISVP2,2013-03-15 02:46:00,
2013-03-14 19:51:00,76.5,38.9,29.95,WSW,247,8.0,15.0,26,0.00,,,0.00,WUHU216DAVISVP2,2013-03-15 02:51:00,
2013-03-14 19:56:00,76.2,39.6,29.95,WSW,245,5.0,15.0,27,0.00,,,0.00,WUHU216DAVISVP2,2013-03-15 02:56:00,
2013-03-14 20:01:00,75.9,40.3,29.95,WSW,249,3.0,15.0,28,0.00,,,0.00,WUHU216DAVISVP2,2013-03-15 03:01:00,
2013-03-14 20:07:00,75.5,40.0,29.95,NNW,338,4.0,15.0,28,0.00,,,0.00,WUHU216DAVISVP2,2013-03-15 03:07:00,
2013-03-14 20:12:00,74.9,39.4,29.96,NNE,13,4.0,11.0,28,0.00,,,0.00,WUHU216DAVISVP2,2013-03-15 03:12:00,
2013-03-14 20:17:00,73.9,40.3,29.96,NNE,13,0.0,8.0,30,0.00,,,0.00,WUHU216DAVISVP2,2013-03-15 03:17:00,
2013-03-14 20:22:00,73.4,41.6,29.96,WSW,242,4.0,7.0,32,0.00,,,0.00,WUHU216DAVISVP2,2013-03-15 03:22:00,
2013-03-14 20:27:00,73.5,42.5,29.96,SW,225,12.0,20.0,33,0.00,,,0.00,WUHU216DAVISVP2,2013-03-15 03:27:00,
2013-03-14 20:32:00,73.4,43.1,29.96,SW,223,12.0,20.0,34,0.00,,,0.00,WUHU216DAVISVP2,2013-03-15 03:32:00,
2013-03-14 20:37:00,73.2,43.0,29.96,SW,228,16.0,21.0,34,0.00,,,0.00,WUHU216DAVISVP2,2013-03-15 03:37:00,
2013-03-14 20:42:00,73.1,42.9,29.96,WSW,241,12.0,21.0,34,0.00,,,0.00,WUHU216DAVISVP2,2013-03-15 03:42:00,
2013-03-14 20:47:00,73.1,42.9,29.97,WSW,244,13.0,21.0,34,0.00,,,0.00,WUHU216DAVISVP2,2013-03-15 03:47:00,
2013-03-14 20:52:00,72.8,43.4,29.97,SW,217,6.0,21.0,35,0.00,,,0.00,WUHU216DAVISVP2,2013-03-15 03:52:00,
2013-03-14 20:57:00,72.5,43.9,29.97,SW,226,4.0,18.0,36,0.00,,,0.00,WUHU216DAVISVP2,2013-03-15 03:57:00,
2013-03-14 21:02:00,72.3,43.7,29.97,WSW,246,7.0,18.0,36,0.00,,,0.00,WUHU216DAVISVP2,2013-03-15 04:02:00,
2013-03-14 21:08:00,72.1,43.5,29.97,NNE,13,6.0,18.0,36,0.00,,,0.00,WUHU216DAVISVP2,2013-03-15 04:08:00,
2013-03-14 21:13:00,71.4,42.9,29.97,NNE,13,0.0,15.0,36,0.00,,,0.00,WUHU216DAVISVP2,2013-03-15 04:13:00,
2013-03-14 21:18:00,71.1,43.3,29.97,North,355,4.0,13.0,37,0.00,,,0.00,WUHU216DAVISVP2,2013-03-15 04:18:00,
2013-03-14 21:23:00,71.0,43.3,29.97,North,355,6.0,9.0,37,0.00,,,0.00,WUHU216DAVISVP2,2013-03-15 04:23:00,
2013-03-14 21:28:00,71.2,44.1,29.97,WSW,246,8.0,8.0,38,0.00,,,0.00,WUHU216DAVISVP2,2013-03-15 04:28:00,
2013-03-14 21:33:00,71.0,44.7,29.97,NNE,16,5.0,9.0,39,0.00,,,0.00,WUHU216DAVISVP2,2013-03-15 04:33:00,
2013-03-14 21:38:00,70.2,44.6,29.97,North,11,4.0,9.0,40,0.00,,,0.00,WUHU216DAVISVP2,2013-03-15 04:38:00,
2013-03-14 21:43:00,70.0,44.4,29.97,North,11,3.0,9.0,40,0.00,,,0.00,WUHU216DAVISVP2,2013-03-15 04:43:00,
2013-03-14 21:48:00,70.3,44.7,29.97,North,11,4.0,9.0,40,0.00,,,0.00,WUHU216DAVISVP2,2013-03-15 04:48:00,
2013-03-14 21:53:00,70.1,43.9,29.97,WNW,286,7.0,7.0,39,0.00,,,0.00,WUHU216DAVISVP2,2013-03-15 04:53:00,
2013-03-14 21:58:00,70.5,44.9,29.97,NW,324,5.0,9.0,40,0.00,,,0.00,WUHU216DAVISVP2,2013-03-15 04:58:00,
2013-03-14 22:04:00,70.1,44.5,29.97,NNW,327,1.0,9.0,40,0.00,,,0.00,WUHU216DAVISVP2,2013-03-15 05:04:00,
2013-03-14 22:09:00,69.7,44.9,29.97,NNW,348,5.0,9.0,41,0.00,,,0.00,WUHU216DAVISVP2,2013-03-15 05:09:00,
2013-03-14 22:14:00,69.1,45.0,29.97,North,355,4.0,9.0,42,0.00,,,0.00,WUHU216DAVISVP2,2013-03-15 05:14:00,
2013-03-14 22:19:00,68.3,44.9,29.97,North,355,3.0,8.0,43,0.00,,,0.00,WUHU216DAVISVP2,2013-03-15 05:19:00,
2013-03-14 22:24:00,68.2,45.4,29.97,North,355,4.0,8.0,44,0.00,,,0.00,WUHU216DAVISVP2,2013-03-15 05:24:00,
2013-03-14 22:29:00,68.0,45.9,29.97,North,355,3.0,7.0,45,0.00,,,0.00,WUHU216DAVISVP2,2013-03-15 05:29:00,
2013-03-14 22:34:00,67.6,46.1,29.98,North,355,6.0,7.0,46,0.00,,,0.00,WUHU216DAVISVP2,2013-03-15 05:34:00,
2013-03-14 22:39:00,67.4,45.9,29.97,North,355,4.0,8.0,46,0.00,,,0.00,WUHU216DAVISVP2,2013-03-15 05:39:00,
2013-03-14 22:44:00,68.3,45.5,29.97,NW,319,6.0,11.0,44,0.00,,,0.00,WUHU216DAVISVP2,2013-03-15 05:44:00,
2013-03-14 22:49:00,69.3,45.1,29.98,NNW,329,4.0,11.0,42,0.00,,,0.00,WUHU216DAVISVP2,2013-03-15 05:49:00,
2013-03-14 22:54:00,68.7,44.6,29.97,NNW,336,5.0,11.0,42,0.00,,,0.00,WUHU216DAVISVP2,2013-03-15 05:54:00,
2013-03-14 23:00:00,68.1,44.0,29.97,NNW,348,4.0,11.0,42,0.00,,,0.00,WUHU216DAVISVP2,2013-03-15 06:00:00,
2013-03-14 23:05:00,67.5,43.5,29.97,North,349,4.0,7.0,42,0.00,,,0.00,WUHU216DAVISVP2,2013-03-15 06:05:00,
2013-03-14 23:10:00,67.1,42.5,29.97,North,349,3.0,7.0,41,0.00,,,0.00,WUHU216DAVISVP2,2013-03-15 06:10:00,
2013-03-14 23:15:00,67.0,42.4,29.97,NW,315,4.0,7.0,41,0.00,,,0.00,WUHU216DAVISVP2,2013-03-15 06:15:00,
2013-03-14 23:20:00,67.1,41.3,29.97,North,355,2.0,7.0,39,0.00,,,0.00,WUHU216DAVISVP2,2013-03-15 06:20:00,
2013-03-14 23:25:00,66.8,41.0,29.97,North,355,4.0,7.0,39,0.00,,,0.00,WUHU216DAVISVP2,2013-03-15 06:25:00,
2013-03-14 23:30:00,66.2,41.2,29.97,North,355,5.0,7.0,40,0.00,,,0.00,WUHU216DAVISVP2,2013-03-15 06:30:00,
2013-03-14 23:36:00,65.9,40.8,29.97,North,355,4.0,7.0,40,0.00,,,0.00,WUHU216DAVISVP2,2013-03-15 06:36:00,
2013-03-14 23:41:00,65.6,41.1,29.97,North,355,4.0,7.0,41,0.00,,,0.00,WUHU216DAVISVP2,2013-03-15 06:41:00,
2013-03-14 23:46:00,65.5,41.7,29.97,North,355,0.0,7.0,42,0.00,,,0.00,WUHU216DAVISVP2,2013-03-15 06:46:00,
2013-03-14 23:51:00,65.3,41.5,29.97,North,355,0.0,7.0,42,0.00,,,0.00,WUHU216DAVISVP2,2013-03-15 06:51:00,
2013-03-14 23:56:00,65.3,41.5,29.96,North,355,0.0,5.0,42,0.00,,,0.00,WUHU216DAVISVP2,2013-03-15 06:56:00,